Time,TemperatureF,DewpointF,PressureIn,WindDirection,WindDirectionDegrees,WindSpeedMPH,WindSpeedGustMPH,Humidity,HourlyPrecipIn,Conditions,Clouds,dailyrainin,SoftwareType,DateUTC
2013-02-16 00:07:00,36.7,35.9,30.04,North,360,0.0,0.0,97,0.00,,-RA,0.00,VWS V14.01,2013-02-16 05:07:00,
2013-02-16 00:08:00,36.7,35.9,30.04,North,360,0.0,0.0,97,0.00,,-RA,0.00,VWS V14.01,2013-02-16 05:08:00,
2013-02-16 00:13:00,36.8,36.0,30.03,North,360,0.0,0.0,97,0.00,,-RA,0.00,VWS V14.01,2013-02-16 05:13:00,
2013-02-16 00:23:00,36.6,35.8,30.03,North,360,0.0,0.0,97,0.00,,-RA,0.00,VWS V14.01,2013-02-16 05:23:00,
2013-02-16 00:28:00,36.6,35.8,30.02,North,360,0.0,0.0,97,0.00,,-RA,0.00,VWS V14.01,2013-02-16 05:28:00,
2013-02-16 00:33:00,36.6,35.8,30.03,North,360,0.0,0.0,97,0.00,,-RA,0.00,VWS V14.01,2013-02-16 05:33:00,
2013-02-16 00:38:00,36.4,35.6,30.04,North,360,0.0,0.0,97,0.00,,-RA,0.00,VWS V14.01,2013-02-16 05:38:00,
2013-02-16 00:48:00,36.3,35.5,30.04,North,360,0.0,0.0,97,0.00,,-RA,0.00,VWS V14.01,2013-02-16 05:48:00,
2013-02-16 00:53:00,36.2,35.4,30.03,North,360,0.0,0.0,97,0.00,,-RA,0.00,VWS V14.01,2013-02-16 05:53:00,
2013-02-16 00:58:00,36.2,35.4,30.03,North,360,0.0,0.0,97,0.00,,OVC021,0.00,VWS V14.01,2013-02-16 05:58:00,
2013-02-16 01:07:00,36.3,35.5,30.03,North,360,0.0,0.0,97,0.00,,OVC021,0.00,VWS V14.01,2013-02-16 06:07:00,
2013-02-16 01:13:00,36.2,35.4,30.02,North,360,0.0,0.0,97,0.00,,OVC021,0.00,VWS V14.01,2013-02-16 06:13:00,
2013-02-16 01:23:00,36.1,35.3,30.03,North,360,0.0,0.0,97,0.00,,OVC021,0.00,VWS V14.01,2013-02-16 06:23:00,
2013-02-16 01:28:00,36.2,35.4,30.03,North,360,0.0,0.0,97,0.00,,OVC021,0.00,VWS V14.01,2013-02-16 06:28:00,
2013-02-16 01:33:00,36.0,35.2,30.03,North,360,0.0,0.0,97,0.00,,OVC021,0.00,VWS V14.01,2013-02-16 06:33:00,
2013-02-16 01:38:00,36.2,35.1,30.03,North,360,0.0,0.0,96,0.00,,OVC021,0.00,VWS V14.01,2013-02-16 06:38:00,
2013-02-16 01:43:00,36.1,35.3,30.03,North,360,0.0,0.0,97,0.00,,OVC021,0.00,VWS V14.01,2013-02-16 06:43:00,
2013-02-16 01:48:00,36.2,35.4,30.03,North,360,0.0,0.0,97,0.00,,OVC021,0.00,VWS V14.01,2013-02-16 06:48:00,
2013-02-16 01:53:00,36.2,35.4,30.02,North,360,0.0,0.0,97,0.00,,OVC021,0.00,VWS V14.01,2013-02-16 06:53:00,
2013-02-16 01:58:00,36.2,35.4,30.03,North,360,0.0,0.0,97,0.00,,OVC095,0.00,VWS V14.01,2013-02-16 06:58:00,
2013-02-16 02:07:00,36.2,35.4,30.03,North,360,0.0,0.0,97,0.00,,OVC095,0.00,VWS V14.01,2013-02-16 07:07:00,
2013-02-16 02:13:00,36.4,35.6,30.03,North,360,0.0,0.0,97,0.00,,OVC095,0.00,VWS V14.01,2013-02-16 07:13:00,
2013-02-16 02:18:00,36.5,35.4,30.02,North,360,0.0,0.0,96,0.00,,OVC095,0.00,VWS V14.01,2013-02-16 07:18:00,
2013-02-16 02:25:00,36.5,35.4,30.02,North,360,0.0,0.0,96,0.00,,OVC095,0.00,VWS V14.01,2013-02-16 07:25:00,
2013-02-16 02:33:00,36.5,35.4,30.02,North,360,0.0,0.0,96,0.00,,OVC095,0.00,VWS V14.01,2013-02-16 07:33:00,
2013-02-16 02:38:00,36.4,35.3,30.01,North,360,0.0,0.0,96,0.00,,OVC095,0.00,VWS V14.01,2013-02-16 07:38:00,
2013-02-16 02:43:00,36.3,35.2,30.01,North,360,0.0,0.0,96,0.00,,OVC095,0.00,VWS V14.01,2013-02-16 07:43:00,
2013-02-16 02:53:00,36.5,35.7,30.00,North,360,0.0,0.0,97,0.00,,OVC095,0.00,VWS V14.01,2013-02-16 07:53:00,
2013-02-16 02:58:00,36.4,35.6,30.00,North,360,0.0,0.0,97,0.00,,OVC080,0.00,VWS V14.01,2013-02-16 07:58:00,
2013-02-16 03:07:00,36.3,35.5,30.00,North,360,0.0,0.0,97,0.00,,OVC080,0.00,VWS V14.01,2013-02-16 08:07:00,
2013-02-16 03:13:00,36.2,35.4,30.00,North,360,0.0,0.0,97,0.00,,OVC080,0.00,VWS V14.01,2013-02-16 08:13:00,
2013-02-16 03:18:00,36.2,35.4,30.00,North,360,0.0,0.0,97,0.00,,OVC080,0.00,VWS V14.01,2013-02-16 08:18:00,
2013-02-16 03:23:00,36.3,35.5,30.00,North,360,0.0,0.0,97,0.00,,OVC080,0.00,VWS V14.01,2013-02-16 08:23:00,
2013-02-16 03:28:00,36.4,35.6,30.00,North,360,0.0,0.0,97,0.00,,OVC080,0.00,VWS V14.01,2013-02-16 08:28:00,
2013-02-16 03:33:00,36.3,35.5,30.00,North,360,0.0,0.0,97,0.00,,OVC080,0.00,VWS V14.01,2013-02-16 08:33:00,
2013-02-16 03:38:00,36.4,35.6,29.99,North,360,0.0,0.0,97,0.00,,OVC080,0.00,VWS V14.01,2013-02-16 08:38:00,
2013-02-16 03:43:00,36.4,35.6,29.99,North,360,0.0,0.0,97,0.00,,OVC080,0.00,VWS V14.01,2013-02-16 08:43:00,
2013-02-16 03:48:00,36.4,35.6,29.99,North,360,0.0,0.0,97,0.00,,OVC080,0.00,VWS V14.01,2013-02-16 08:48:00,
2013-02-16 03:53:00,36.3,35.5,29.99,North,360,0.0,0.0,97,0.00,,OVC080,0.00,VWS V14.01,2013-02-16 08:53:00,
2013-02-16 04:07:00,36.4,35.6,29.99,North,360,0.0,0.0,97,0.00,,OVC080,0.00,VWS V14.01,2013-02-16 09:07:00,
2013-02-16 04:13:00,36.5,35.7,30.00,North,360,0.0,0.0,97,0.00,,OVC080,0.00,VWS V14.01,2013-02-16 09:13:00,
2013-02-16 04:18:00,36.5,35.7,29.99,North,360,0.0,0.0,97,0.00,,OVC080,0.00,VWS V14.01,2013-02-16 09:18:00,
2013-02-16 04:28:00,36.7,35.9,30.00,North,360,0.0,0.0,97,0.00,,OVC080,0.00,VWS V14.01,2013-02-16 09:28:00,
2013-02-16 04:33:00,36.9,36.1,29.99,North,360,0.0,0.0,97,0.00,,OVC080,0.00,VWS V14.01,2013-02-16 09:33:00,
2013-02-16 04:38:00,36.7,35.9,29.99,North,360,0.0,0.0,97,0.00,,OVC080,0.00,VWS V14.01,2013-02-16 09:38:00,
2013-02-16 04:43:00,36.8,36.0,29.99,North,360,0.0,0.0,97,0.00,,OVC080,0.00,VWS V14.01,2013-02-16 09:43:00,
2013-02-16 04:48:00,37.0,35.9,29.99,North,360,0.0,0.0,96,0.00,,OVC080,0.00,VWS V14.01,2013-02-16 09:48:00,
2013-02-16 04:53:00,36.8,35.7,29.99,North,360,0.0,0.0,96,0.00,,OVC080,0.00,VWS V14.01,2013-02-16 09:53:00,
2013-02-16 05:07:00,36.8,35.4,29.98,North,360,0.0,0.0,95,0.00,,OVC075,0.00,VWS V14.01,2013-02-16 10:07:00,
2013-02-16 05:13:00,36.5,35.4,29.98,North,360,0.0,0.0,96,0.00,,OVC075,0.00,VWS V14.01,2013-02-16 10:13:00,
2013-02-16 05:23:00,36.4,35.3,29.99,North,360,0.0,0.0,96,0.00,,OVC075,0.00,VWS V14.01,2013-02-16 10:23:00,
2013-02-16 05:28:00,36.7,35.6,29.98,North,360,0.0,0.0,96,0.00,,OVC075,0.00,VWS V14.01,2013-02-16 10:28:00,
2013-02-16 05:38:00,36.5,35.4,29.98,North,360,0.0,0.0,96,0.00,,OVC075,0.00,VWS V14.01,2013-02-16 10:38:00,
2013-02-16 05:43:00,36.4,35.3,29.99,North,360,0.0,0.0,96,0.00,,OVC075,0.00,VWS V14.01,2013-02-16 10:43:00,
2013-02-16 05:48:00,36.5,35.7,29.99,North,360,0.0,0.0,97,0.00,,OVC075,0.00,VWS V14.01,2013-02-16 10:48:00,
2013-02-16 05:53:00,36.4,35.3,29.99,North,360,0.0,0.0,96,0.00,,OVC075,0.00,VWS V14.01,2013-02-16 10:53:00,
2013-02-16 05:58:00,36.3,35.2,29.99,North,360,0.0,0.0,96,0.00,,-RA,0.00,VWS V14.01,2013-02-16 10:58:00,
2013-02-16 06:07:00,36.3,35.2,29.99,North,360,0.0,0.0,96,0.00,,-RA,0.00,VWS V14.01,2013-02-16 11:07:00,
2013-02-16 06:13:00,36.4,35.3,29.99,North,360,0.0,0.0,96,0.00,,-RA,0.00,VWS V14.01,2013-02-16 11:13:00,
2013-02-16 06:18:00,36.4,35.3,29.99,North,360,0.0,0.0,96,0.00,,-RA,0.00,VWS V14.01,2013-02-16 11:18:00,
2013-02-16 06:28:00,36.7,35.6,29.99,North,360,0.0,0.0,96,0.00,,-RA,0.00,VWS V14.01,2013-02-16 11:28:00,
2013-02-16 06:33:00,36.8,36.0,29.99,North,360,0.0,0.0,97,0.00,,-RA,0.00,VWS V14.01,2013-02-16 11:33:00,
2013-02-16 06:43:00,36.7,35.9,29.99,North,360,0.0,0.0,97,0.00,,-RA,0.00,VWS V14.01,2013-02-16 11:43:00,
2013-02-16 06:53:00,36.7,35.9,29.99,North,360,0.0,0.0,97,0.00,,-RA,0.00,VWS V14.01,2013-02-16 11:53:00,
2013-02-16 06:58:00,36.6,35.8,29.99,North,360,0.0,0.0,97,0.00,,OVC040,0.00,VWS V14.01,2013-02-16 11:58:00,
2013-02-16 07:07:00,36.6,35.5,29.99,North,360,0.0,0.0,96,0.00,,OVC040,0.00,VWS V14.01,2013-02-16 12:07:00,
2013-02-16 07:13:00,36.6,35.2,29.99,North,360,0.0,0.0,95,0.00,,OVC040,0.00,VWS V14.01,2013-02-16 12:13:00,
2013-02-16 07:18:00,36.5,35.1,29.99,North,360,0.0,0.0,95,0.00,,OVC040,0.00,VWS V14.01,2013-02-16 12:18:00,
2013-02-16 07:23:00,36.5,34.8,29.99,North,360,0.0,0.0,94,0.00,,OVC040,0.00,VWS V14.01,2013-02-16 12:23:00,
2013-02-16 07:28:00,36.5,34.8,29.99,North,360,0.0,0.0,94,0.00,,OVC040,0.00,VWS V14.01,2013-02-16 12:28:00,
2013-02-16 07:33:00,36.5,34.8,29.99,North,360,0.0,0.0,94,0.00,,OVC040,0.00,VWS V14.01,2013-02-16 12:33:00,
2013-02-16 07:38:00,36.5,35.1,29.99,North,360,0.0,0.0,95,0.00,,OVC040,0.00,VWS V14.01,2013-02-16 12:38:00,
2013-02-16 07:48:00,36.4,34.7,29.99,North,360,0.0,0.0,94,0.00,,OVC040,0.00,VWS V14.01,2013-02-16 12:48:00,
2013-02-16 07:58:00,36.3,34.3,29.99,North,360,0.0,0.0,92,0.00,,OVC110,0.00,VWS V14.01,2013-02-16 12:58:00,
2013-02-16 08:07:00,36.3,34.6,29.99,North,360,0.0,0.0,94,0.00,,OVC110,0.00,VWS V14.01,2013-02-16 13:07:00,
2013-02-16 08:13:00,36.3,34.6,29.99,North,360,0.0,0.0,94,0.00,,OVC110,0.00,VWS V14.01,2013-02-16 13:13:00,
2013-02-16 08:18:00,36.3,34.6,29.99,North,360,0.0,0.0,94,0.00,,OVC110,0.00,VWS V14.01,2013-02-16 13:18:00,
2013-02-16 08:23:00,36.4,34.7,29.99,North,360,0.0,0.0,94,0.00,,OVC110,0.00,VWS V14.01,2013-02-16 13:23:00,
2013-02-16 08:28:00,36.4,34.4,29.99,North,360,0.0,0.0,92,0.00,,OVC110,0.00,VWS V14.01,2013-02-16 13:28:00,
2013-02-16 08:33:00,36.5,34.5,29.99,North,360,0.0,0.0,92,0.00,,OVC110,0.00,VWS V14.01,2013-02-16 13:33:00,
2013-02-16 08:43:00,36.7,34.4,29.99,North,360,0.0,0.0,91,0.00,,OVC110,0.00,VWS V14.01,2013-02-16 13:43:00,
2013-02-16 08:48:00,36.8,34.2,29.98,North,360,0.0,0.0,90,0.00,,OVC110,0.00,VWS V14.01,2013-02-16 13:48:00,
2013-02-16 08:53:00,36.9,34.3,29.98,North,360,0.0,0.0,90,0.00,,OVC110,0.00,VWS V14.01,2013-02-16 13:53:00,
2013-02-16 08:58:00,37.0,33.8,29.98,North,360,0.0,0.0,88,0.00,,OVC170,0.00,VWS V14.01,2013-02-16 13:58:00,
2013-02-16 09:07:00,37.2,34.3,29.98,North,360,0.0,0.0,89,0.00,,OVC170,0.00,VWS V14.01,2013-02-16 14:07:00,
2013-02-16 09:13:00,37.6,34.1,29.98,North,360,0.0,0.0,87,0.00,,OVC170,0.00,VWS V14.01,2013-02-16 14:13:00,
2013-02-16 09:18:00,37.4,33.6,29.98,North,360,0.0,0.0,86,0.00,,OVC170,0.00,VWS V14.01,2013-02-16 14:18:00,
2013-02-16 09:23:00,37.8,34.0,29.98,North,360,0.0,0.0,86,0.00,,OVC170,0.00,VWS V14.01,2013-02-16 14:23:00,
2013-02-16 09:28:00,38.0,33.9,29.98,North,360,0.0,0.0,85,0.00,,OVC170,0.00,VWS V14.01,2013-02-16 14:28:00,
2013-02-16 09:33:00,38.5,34.4,29.98,North,360,0.0,0.0,85,0.00,,OVC170,0.00,VWS V14.01,2013-02-16 14:33:00,
2013-02-16 09:38:00,38.3,33.8,29.98,North,360,0.0,0.0,84,0.00,,OVC170,0.00,VWS V14.01,2013-02-16 14:38:00,
2013-02-16 09:48:00,38.0,33.5,29.98,North,360,0.0,0.0,84,0.00,,OVC170,0.00,VWS V14.01,2013-02-16 14:48:00,
2013-02-16 09:53:00,37.8,33.3,29.98,North,360,0.0,0.0,84,0.00,,OVC170,0.00,VWS V14.01,2013-02-16 14:53:00,
2013-02-16 10:07:00,38.0,33.5,29.98,North,360,0.0,0.0,84,0.00,,OVC170,0.00,VWS V14.01,2013-02-16 15:07:00,
2013-02-16 10:13:00,37.9,32.8,29.98,North,360,0.0,0.0,82,0.00,,OVC170,0.00,VWS V14.01,2013-02-16 15:13:00,
2013-02-16 10:18:00,38.0,33.2,29.98,North,360,0.0,0.0,83,0.00,,OVC170,0.00,VWS V14.01,2013-02-16 15:18:00,
2013-02-16 10:23:00,38.1,33.6,29.98,North,360,0.0,0.0,84,0.00,,OVC170,0.00,VWS V14.01,2013-02-16 15:23:00,
2013-02-16 10:28:00,38.1,33.3,29.97,North,360,0.0,0.0,83,0.00,,OVC170,0.00,VWS V14.01,2013-02-16 15:28:00,
2013-02-16 10:38:00,38.2,33.1,29.97,North,360,0.0,0.0,82,0.00,,OVC170,0.00,VWS V14.01,2013-02-16 15:38:00,
2013-02-16 10:43:00,38.3,33.5,29.97,North,360,0.0,0.0,83,0.00,,OVC170,0.00,VWS V14.01,2013-02-16 15:43:00,
2013-02-16 10:48:00,38.3,32.9,29.97,North,360,0.0,0.0,81,0.00,,OVC170,0.00,VWS V14.01,2013-02-16 15:48:00,
2013-02-16 10:53:00,38.4,33.0,29.97,North,360,0.0,0.0,81,0.00,,OVC170,0.00,VWS V14.01,2013-02-16 15:53:00,
2013-02-16 10:58:00,38.5,33.0,29.97,North,360,0.0,0.0,81,0.00,,OVC030,0.00,VWS V14.01,2013-02-16 15:58:00,
2013-02-16 11:07:00,38.6,32.8,29.97,North,360,0.0,0.0,79,0.00,,OVC030,0.00,VWS V14.01,2013-02-16 16:07:00,
2013-02-16 11:13:00,38.6,32.1,29.97,North,360,0.0,0.0,77,0.00,,OVC030,0.00,VWS V14.01,2013-02-16 16:13:00,
2013-02-16 11:25:00,38.8,32.7,29.96,North,360,0.0,0.0,78,0.00,,OVC030,0.00,VWS V14.01,2013-02-16 16:25:00,
2013-02-16 11:33:00,38.9,32.1,29.95,North,360,0.0,0.0,76,0.00,,OVC030,0.00,VWS V14.01,2013-02-16 16:33:00,
2013-02-16 11:38:00,39.0,31.8,29.95,North,360,0.0,0.0,75,0.00,,OVC030,0.00,VWS V14.01,2013-02-16 16:38:00,
2013-02-16 11:48:00,39.0,32.2,29.95,North,360,0.0,0.0,76,0.00,,OVC030,0.00,VWS V14.01,2013-02-16 16:48:00,
2013-02-16 11:53:00,39.1,31.9,29.94,North,360,0.0,0.0,75,0.00,,OVC030,0.00,VWS V14.01,2013-02-16 16:53:00,
2013-02-16 11:58:00,39.1,32.3,29.94,North,360,0.0,0.0,76,0.00,,OVC100,0.00,VWS V14.01,2013-02-16 16:58:00,
2013-02-16 12:07:00,39.1,31.9,29.94,North,360,0.0,0.0,75,0.00,,OVC100,0.00,VWS V14.01,2013-02-16 17:07:00,
2013-02-16 12:13:00,39.5,31.9,29.94,North,360,0.0,0.0,74,0.00,,OVC100,0.00,VWS V14.01,2013-02-16 17:13:00,
2013-02-16 12:18:00,39.4,31.8,29.93,North,360,0.0,0.0,74,0.00,,OVC100,0.00,VWS V14.01,2013-02-16 17:18:00,
2013-02-16 12:28:00,39.4,31.8,29.93,North,360,0.0,0.0,74,0.00,,OVC100,0.00,VWS V14.01,2013-02-16 17:28:00,
2013-02-16 12:38:00,39.2,30.9,29.93,North,360,0.0,0.0,72,0.00,,OVC100,0.00,VWS V14.01,2013-02-16 17:38:00,
2013-02-16 12:43:00,38.9,31.7,29.93,North,360,0.0,0.0,75,0.00,,OVC100,0.00,VWS V14.01,2013-02-16 17:43:00,
2013-02-16 12:48:00,38.7,31.5,29.92,North,360,0.0,0.0,75,0.00,,OVC100,0.00,VWS V14.01,2013-02-16 17:48:00,
2013-02-16 12:58:00,38.5,32.0,29.92,North,360,0.0,0.0,77,0.00,,OVC039,0.00,VWS V14.01,2013-02-16 17:58:00,
2013-02-16 13:07:00,38.5,31.7,29.92,North,360,0.0,0.0,76,0.00,,OVC039,0.00,VWS V14.01,2013-02-16 18:07:00,
2013-02-16 13:13:00,38.5,31.3,29.93,North,360,0.0,0.0,75,0.00,,OVC039,0.00,VWS V14.01,2013-02-16 18:13:00,
2013-02-16 13:18:00,38.4,31.6,29.93,North,360,0.0,0.0,76,0.00,,OVC039,0.00,VWS V14.01,2013-02-16 18:18:00,
2013-02-16 13:28:00,38.3,31.8,29.92,North,360,0.0,0.0,77,0.00,,OVC039,0.00,VWS V14.01,2013-02-16 18:28:00,
2013-02-16 13:33:00,38.3,31.5,29.92,North,360,0.0,0.0,76,0.00,,OVC039,0.00,VWS V14.01,2013-02-16 18:33:00,
2013-02-16 13:38:00,37.9,31.8,29.92,North,360,0.0,0.0,78,0.00,,OVC039,0.00,VWS V14.01,2013-02-16 18:38:00,
2013-02-16 13:43:00,37.2,31.5,29.92,North,360,0.0,0.0,79,0.00,,OVC039,0.00,VWS V14.01,2013-02-16 18:43:00,
2013-02-16 13:48:00,36.8,31.4,29.92,North,360,0.0,0.0,81,0.00,,OVC039,0.00,VWS V14.01,2013-02-16 18:48:00,
2013-02-16 13:58:00,37.1,31.7,29.92,North,360,0.0,0.0,81,0.00,,OVC044,0.00,VWS V14.01,2013-02-16 18:58:00,
2013-02-16 14:07:00,37.4,31.3,29.92,North,360,0.0,0.0,78,0.00,,OVC044,0.00,VWS V14.01,2013-02-16 19:07:00,
2013-02-16 14:13:00,37.5,31.4,29.91,North,360,0.0,0.0,78,0.00,,OVC044,0.00,VWS V14.01,2013-02-16 19:13:00,
2013-02-16 14:18:00,37.6,31.5,29.90,North,360,0.0,0.0,78,0.00,,OVC044,0.00,VWS V14.01,2013-02-16 19:18:00,
2013-02-16 14:23:00,37.7,30.9,29.90,North,360,0.0,0.0,76,0.00,,OVC044,0.00,VWS V14.01,2013-02-16 19:23:00,
2013-02-16 14:28:00,37.8,31.0,29.90,North,360,0.0,0.0,76,0.00,,OVC044,0.00,VWS V14.01,2013-02-16 19:28:00,
2013-02-16 14:33:00,37.6,30.1,29.90,North,360,0.0,0.0,74,0.00,,OVC044,0.00,VWS V14.01,2013-02-16 19:33:00,
2013-02-16 14:38:00,37.8,30.6,29.90,North,360,0.0,0.0,75,0.00,,OVC044,0.00,VWS V14.01,2013-02-16 19:38:00,
2013-02-16 14:43:00,38.0,30.9,29.90,North,360,0.0,0.0,75,0.00,,OVC044,0.00,VWS V14.01,2013-02-16 19:43:00,
2013-02-16 14:48:00,37.8,29.6,29.90,North,360,0.0,0.0,72,0.00,,OVC044,0.00,VWS V14.01,2013-02-16 19:48:00,
2013-02-16 14:58:00,37.9,30.4,29.89,North,360,0.0,0.0,74,0.00,,OVC055,0.00,VWS V14.01,2013-02-16 19:58:00,
2013-02-16 15:07:00,37.8,29.9,29.90,North,360,0.0,0.0,73,0.00,,OVC055,0.00,VWS V14.01,2013-02-16 20:07:00,
2013-02-16 15:13:00,37.8,30.3,29.89,North,360,0.0,0.0,74,0.00,,OVC055,0.00,VWS V14.01,2013-02-16 20:13:00,
2013-02-16 15:18:00,38.0,30.1,29.89,North,360,0.0,0.0,73,0.00,,OVC055,0.00,VWS V14.01,2013-02-16 20:18:00,
2013-02-16 15:28:00,37.7,29.5,29.89,North,360,0.0,0.0,72,0.00,,OVC055,0.00,VWS V14.01,2013-02-16 20:28:00,
2013-02-16 15:33:00,37.8,29.2,29.88,North,360,0.0,0.0,71,0.00,,OVC055,0.00,VWS V14.01,2013-02-16 20:33:00,
2013-02-16 15:38:00,37.8,29.6,29.89,North,360,0.0,0.0,72,0.00,,OVC055,0.00,VWS V14.01,2013-02-16 20:38:00,
2013-02-16 15:43:00,37.8,29.6,29.89,North,360,0.0,0.0,72,0.00,,OVC055,0.00,VWS V14.01,2013-02-16 20:43:00,
2013-02-16 15:53:00,37.7,29.1,29.89,North,360,0.0,0.0,71,0.00,,OVC055,0.00,VWS V14.01,2013-02-16 20:53:00,
2013-02-16 15:58:00,37.7,28.7,29.89,North,360,0.0,0.0,70,0.00,,OVC100,0.00,VWS V14.01,2013-02-16 20:58:00,
2013-02-16 16:07:00,37.7,28.7,29.89,North,360,0.0,0.0,70,0.00,,OVC100,0.00,VWS V14.01,2013-02-16 21:07:00,
2013-02-16 16:13:00,37.1,28.5,29.89,North,360,0.0,0.0,71,0.00,,OVC100,0.00,VWS V14.01,2013-02-16 21:13:00,
2013-02-16 16:18:00,36.9,28.0,29.89,North,360,0.0,0.0,70,0.00,,OVC100,0.00,VWS V14.01,2013-02-16 21:18:00,
2013-02-16 16:25:00,37.0,28.1,29.90,North,360,0.0,0.0,70,0.00,,OVC100,0.00,VWS V14.01,2013-02-16 21:25:00,
2013-02-16 16:33:00,37.1,28.9,29.89,North,360,0.0,0.0,72,0.00,,OVC100,0.00,VWS V14.01,2013-02-16 21:33:00,
2013-02-16 16:38:00,37.1,28.9,29.90,North,360,0.0,0.0,72,0.00,,OVC100,0.00,VWS V14.01,2013-02-16 21:38:00,
2013-02-16 16:43:00,36.9,26.8,29.89,North,360,0.0,0.0,67,0.00,,OVC100,0.00,VWS V14.01,2013-02-16 21:43:00,
2013-02-16 16:53:00,36.7,26.6,29.90,North,360,0.0,0.0,67,0.00,,OVC100,0.00,VWS V14.01,2013-02-16 21:53:00,
2013-02-16 16:58:00,36.7,26.2,29.89,North,360,0.0,0.0,65,0.00,,OVC250,0.00,VWS V14.01,2013-02-16 21:58:00,
2013-02-16 17:07:00,36.9,26.4,29.89,North,360,0.0,0.0,65,0.00,,OVC250,0.00,VWS V14.01,2013-02-16 22:07:00,
2013-02-16 17:13:00,36.8,27.5,29.89,North,360,0.0,0.0,69,0.00,,OVC250,0.00,VWS V14.01,2013-02-16 22:13:00,
2013-02-16 17:18:00,36.7,27.8,29.89,North,360,0.0,0.0,70,0.00,,OVC250,0.00,VWS V14.01,2013-02-16 22:18:00,
2013-02-16 17:23:00,36.7,28.5,29.89,North,360,0.0,0.0,72,0.00,,OVC250,0.00,VWS V14.01,2013-02-16 22:23:00,
2013-02-16 17:33:00,36.5,27.2,29.89,North,360,0.0,0.0,69,0.00,,OVC250,0.00,VWS V14.01,2013-02-16 22:33:00,
2013-02-16 17:43:00,36.5,27.2,29.89,North,360,0.0,0.0,69,0.00,,OVC250,0.00,VWS V14.01,2013-02-16 22:43:00,
2013-02-16 17:48:00,36.4,26.7,29.89,North,360,0.0,0.0,68,0.00,,OVC250,0.00,VWS V14.01,2013-02-16 22:48:00,
2013-02-16 17:53:00,36.4,26.7,29.89,North,360,0.0,0.0,68,0.00,,OVC250,0.00,VWS V14.01,2013-02-16 22:53:00,
2013-02-16 17:58:00,36.4,27.1,29.89,North,360,0.0,0.0,69,0.00,,OVC046,0.00,VWS V14.01,2013-02-16 22:58:00,
2013-02-16 18:07:00,36.4,26.7,29.89,North,360,0.0,0.0,68,0.00,,OVC046,0.00,VWS V14.01,2013-02-16 23:07:00,
2013-02-16 18:13:00,36.3,27.0,29.89,North,360,0.0,0.0,69,0.00,,OVC046,0.00,VWS V14.01,2013-02-16 23:13:00,
2013-02-16 18:18:00,36.3,27.4,29.89,North,360,0.0,0.0,70,0.00,,OVC046,0.00,VWS V14.01,2013-02-16 23:18:00,
2013-02-16 18:23:00,36.2,27.7,29.89,North,360,0.0,0.0,71,0.00,,OVC046,0.00,VWS V14.01,2013-02-16 23:23:00,
2013-02-16 18:28:00,36.3,27.4,29.89,North,360,0.0,0.0,70,0.00,,OVC046,0.00,VWS V14.01,2013-02-16 23:28:00,
2013-02-16 18:33:00,36.2,27.3,29.89,North,360,0.0,0.0,70,0.00,,OVC046,0.00,VWS V14.01,2013-02-16 23:33:00,
2013-02-16 18:38:00,36.2,27.7,29.89,North,360,0.0,0.0,71,0.00,,OVC046,0.00,VWS V14.01,2013-02-16 23:38:00,
2013-02-16 18:43:00,36.2,27.3,29.89,North,360,0.0,0.0,70,0.00,,OVC046,0.00,VWS V14.01,2013-02-16 23:43:00,
2013-02-16 18:48:00,36.2,26.1,29.89,North,360,0.0,0.0,67,0.00,,OVC046,0.00,VWS V14.01,2013-02-16 23:48:00,
2013-02-16 18:53:00,36.2,24.5,29.89,North,360,0.0,0.0,62,0.00,,OVC046,0.00,VWS V14.01,2013-02-16 23:53:00,
2013-02-16 18:58:00,36.1,24.0,29.88,North,360,0.0,0.0,61,0.00,,OVC100,0.00,VWS V14.01,2013-02-16 23:58:00,
2013-02-16 19:07:00,36.1,24.0,29.89,North,360,0.0,0.0,61,0.00,,OVC100,0.00,VWS V14.01,2013-02-17 00:07:00,
2013-02-16 19:13:00,36.0,23.5,29.89,North,360,0.0,0.0,60,0.00,,OVC100,0.00,VWS V14.01,2013-02-17 00:13:00,
2013-02-16 19:18:00,35.9,23.0,29.90,North,360,0.0,0.0,59,0.00,,OVC100,0.00,VWS V14.01,2013-02-17 00:18:00,
2013-02-16 19:25:00,35.9,23.0,29.90,North,360,0.0,0.0,59,0.00,,OVC100,0.00,VWS V14.01,2013-02-17 00:25:00,
2013-02-16 19:33:00,35.8,22.4,29.89,North,360,0.0,0.0,58,0.00,,OVC100,0.00,VWS V14.01,2013-02-17 00:33:00,
2013-02-16 19:38:00,35.7,22.8,29.89,North,360,0.0,0.0,59,0.00,,OVC100,0.00,VWS V14.01,2013-02-17 00:38:00,
2013-02-16 19:43:00,35.6,21.8,29.90,North,360,0.0,0.0,57,0.00,,OVC100,0.00,VWS V14.01,2013-02-17 00:43:00,
2013-02-16 19:48:00,35.5,21.7,29.89,North,360,0.0,0.0,57,0.00,,OVC100,0.00,VWS V14.01,2013-02-17 00:48:00,
2013-02-16 19:58:00,35.4,21.6,29.90,North,360,0.0,0.0,57,0.00,,OVC110,0.00,VWS V14.01,2013-02-17 00:58:00,
2013-02-16 20:07:00,35.3,21.5,29.89,North,360,0.0,0.0,57,0.00,,OVC110,0.00,VWS V14.01,2013-02-17 01:07:00,
2013-02-16 20:13:00,35.2,20.5,29.89,North,360,0.0,0.0,55,0.00,,OVC110,0.00,VWS V14.01,2013-02-17 01:13:00,
2013-02-16 20:18:00,35.1,20.4,29.89,North,360,0.0,0.0,55,0.00,,OVC110,0.00,VWS V14.01,2013-02-17 01:18:00,
2013-02-16 20:23:00,35.1,20.4,29.89,North,360,0.0,0.0,55,0.00,,OVC110,0.00,VWS V14.01,2013-02-17 01:23:00,
2013-02-16 20:28:00,35.0,20.3,29.89,North,360,0.0,0.0,55,0.00,,OVC110,0.00,VWS V14.01,2013-02-17 01:28:00,
2013-02-16 20:33:00,35.0,19.9,29.88,North,360,0.0,0.0,54,0.00,,OVC110,0.00,VWS V14.01,2013-02-17 01:33:00,
2013-02-16 20:38:00,34.9,19.3,29.89,North,360,0.0,0.0,52,0.00,,OVC110,0.00,VWS V14.01,2013-02-17 01:38:00,
2013-02-16 20:43:00,34.9,20.2,29.89,North,360,0.0,0.0,55,0.00,,OVC110,0.00,VWS V14.01,2013-02-17 01:43:00,
2013-02-16 20:48:00,34.8,19.2,29.88,North,360,0.0,0.0,52,0.00,,OVC110,0.00,VWS V14.01,2013-02-17 01:48:00,
2013-02-16 20:53:00,34.8,19.2,29.88,North,360,0.0,0.0,52,0.00,,OVC110,0.00,VWS V14.01,2013-02-17 01:53:00,
2013-02-16 20:58:00,34.7,18.1,29.89,North,360,0.0,0.0,50,0.00,,OVC110,0.00,VWS V14.01,2013-02-17 01:58:00,
2013-02-16 21:07:00,34.7,18.1,29.88,North,360,0.0,0.0,50,0.00,,OVC110,0.00,VWS V14.01,2013-02-17 02:07:00,
2013-02-16 21:13:00,34.6,17.5,29.88,North,360,0.0,0.0,49,0.00,,OVC110,0.00,VWS V14.01,2013-02-17 02:13:00,
2013-02-16 21:18:00,34.6,17.0,29.88,North,360,0.0,0.0,48,0.00,,OVC110,0.00,VWS V14.01,2013-02-17 02:18:00,
2013-02-16 21:23:00,34.5,16.9,29.88,North,360,0.0,0.0,48,0.00,,OVC110,0.00,VWS V14.01,2013-02-17 02:23:00,
2013-02-16 21:28:00,34.4,17.9,29.88,North,360,0.0,0.0,50,0.00,,OVC110,0.00,VWS V14.01,2013-02-17 02:28:00,
2013-02-16 21:33:00,34.3,18.2,29.88,North,360,0.0,0.0,51,0.00,,OVC110,0.00,VWS V14.01,2013-02-17 02:33:00,
2013-02-16 21:38:00,34.2,18.2,29.88,North,360,0.0,0.0,51,0.00,,OVC110,0.00,VWS V14.01,2013-02-17 02:38:00,
2013-02-16 21:48:00,34.1,17.1,29.88,North,360,0.0,0.0,49,0.00,,OVC110,0.00,VWS V14.01,2013-02-17 02:48:00,
2013-02-16 21:53:00,34.0,17.0,29.88,North,360,0.0,0.0,49,0.00,,OVC110,0.00,VWS V14.01,2013-02-17 02:53:00,
2013-02-16 21:58:00,34.0,16.5,29.88,North,360,0.0,0.0,48,0.00,,OVC110,0.00,VWS V14.01,2013-02-17 02:58:00,
2013-02-16 22:07:00,33.9,16.9,29.88,North,360,0.0,0.0,49,0.00,,OVC110,0.00,VWS V14.01,2013-02-17 03:07:00,
2013-02-16 22:13:00,33.9,16.4,29.88,North,360,0.0,0.0,48,0.00,,OVC110,0.00,VWS V14.01,2013-02-17 03:13:00,
2013-02-16 22:23:00,33.7,16.2,29.88,North,360,0.0,0.0,48,0.00,,OVC110,0.00,VWS V14.01,2013-02-17 03:23:00,
2013-02-16 22:28:00,33.7,15.7,29.88,North,360,0.0,0.0,47,0.00,,OVC110,0.00,VWS V14.01,2013-02-17 03:28:00,
2013-02-16 22:38:00,33.6,15.6,29.87,North,360,0.0,0.0,47,0.00,,OVC110,0.00,VWS V14.01,2013-02-17 03:38:00,
2013-02-16 22:43:00,33.5,15.5,29.87,North,360,0.0,0.0,47,0.00,,OVC110,0.00,VWS V14.01,2013-02-17 03:43:00,
2013-02-16 22:48:00,33.5,15.5,29.87,North,360,0.0,0.0,47,0.00,,OVC110,0.00,VWS V14.01,2013-02-17 03:48:00,
2013-02-16 22:58:00,33.3,15.8,29.87,North,360,0.0,0.0,48,0.00,,OVC110,0.00,VWS V14.01,2013-02-17 03:58:00,
2013-02-16 23:07:00,33.3,15.8,29.86,North,360,0.0,0.0,48,0.00,,OVC110,0.00,VWS V14.01,2013-02-17 04:07:00,
2013-02-16 23:13:00,33.2,15.7,29.87,North,360,0.0,0.0,48,0.00,,OVC110,0.00,VWS V14.01,2013-02-17 04:13:00,
2013-02-16 23:18:00,33.1,16.6,29.86,North,360,0.0,0.0,50,0.00,,OVC110,0.00,VWS V14.01,2013-02-17 04:18:00,
2013-02-16 23:28:00,32.8,16.4,29.86,North,360,0.0,0.0,50,0.00,,OVC110,0.00,VWS V14.01,2013-02-17 04:28:00,
2013-02-16 23:33:00,32.7,16.3,29.86,North,360,0.0,0.0,50,0.00,,OVC110,0.00,VWS V14.01,2013-02-17 04:33:00,
2013-02-16 23:38:00,32.6,16.7,29.86,North,360,0.0,0.0,51,0.00,,OVC110,0.00,VWS V14.01,2013-02-17 04:38:00,
2013-02-16 23:43:00,32.4,17.0,29.86,North,360,0.0,0.0,52,0.00,,OVC110,0.00,VWS V14.01,2013-02-17 04:43:00,
2013-02-16 23:48:00,32.3,16.9,29.86,North,360,0.0,0.0,52,0.00,,OVC110,0.00,VWS V14.01,2013-02-17 04:48:00,
2013-02-16 23:53:00,32.2,16.3,29.86,North,360,0.0,0.0,51,0.00,,OVC110,0.00,VWS V14.01,2013-02-17 04:53:00,
2013-02-16 23:58:00,32.1,16.7,29.86,North,360,0.0,0.0,52,0.00,,OVC100,0.00,VWS V14.01,2013-02-17 04:58:00,